Time,TemperatureF,DewpointF,PressureIn,WindDirection,WindDirectionDegrees,WindSpeedMPH,WindSpeedGustMPH,Humidity,HourlyPrecipIn,Conditions,Clouds,dailyrainin,SoftwareType,DateUTC
2013-03-27 00:00:00,28.2,23.0,29.36,WNW,292,0.0,2.6,79,0.00,,,0.00,Rainwise IP-100,2013-03-27 04:00:00,
2013-03-27 00:02:00,28.2,23.0,29.36,NNW,337,0.0,2.6,79,0.00,,,0.00,Rainwise IP-100,2013-03-27 04:02:00,
2013-03-27 00:07:00,28.2,23.0,29.36,NNW,337,0.0,0.0,79,0.00,,,0.00,Rainwise IP-100,2013-03-27 04:07:00,
2013-03-27 00:11:00,27.9,23.0,29.36,NNW,337,0.0,0.0,79,0.00,,,0.00,Rainwise IP-100,2013-03-27 04:11:00,
2013-03-27 00:16:00,27.9,23.0,29.36,NNW,337,0.0,3.0,80,0.00,,,0.00,Rainwise IP-100,2013-03-27 04:16:00,
2013-03-27 00:21:00,27.8,23.0,29.36,NNW,337,0.0,0.0,80,0.00,,,0.00,Rainwise IP-100,2013-03-27 04:21:00,
2013-03-27 00:27:00,27.7,23.0,29.36,NNW,337,0.0,0.0,80,0.00,,,0.00,Rainwise IP-100,2013-03-27 04:27:00,
2013-03-27 00:32:00,27.7,23.0,29.36,NNW,337,0.0,0.0,81,0.00,,,0.00,Rainwise IP-100,2013-03-27 04:32:00,
2013-03-27 00:37:00,27.4,23.0,29.36,NNW,337,0.0,0.0,81,0.00,,,0.00,Rainwise IP-100,2013-03-27 04:37:00,
2013-03-27 00:42:00,27.3,23.0,29.36,NNW,337,0.0,1.4,81,0.00,,,0.00,Rainwise IP-100,2013-03-27 04:42:00,
2013-03-27 00:47:00,27.1,23.0,29.36,NNW,337,0.0,1.2,82,0.00,,,0.00,Rainwise IP-100,2013-03-27 04:47:00,
2013-03-27 00:52:00,27.1,23.0,29.36,NNW,337,0.0,0.0,83,0.00,,,0.00,Rainwise IP-100,2013-03-27 04:52:00,
2013-03-27 00:57:00,27.0,23.0,29.36,NNW,337,0.0,0.0,83,0.00,,,0.00,Rainwise IP-100,2013-03-27 04:57:00,
2013-03-27 01:02:00,26.9,23.0,29.36,NNW,337,0.0,0.0,83,0.00,,,0.00,Rainwise IP-100,2013-03-27 05:02:00,
2013-03-27 01:07:00,26.9,24.0,29.36,NNW,337,0.0,0.0,84,0.00,,,0.00,Rainwise IP-100,2013-03-27 05:07:00,
2013-03-27 01:12:00,26.8,24.0,29.36,NNW,337,0.0,0.0,84,0.00,,,0.00,Rainwise IP-100,2013-03-27 05:12:00,
2013-03-27 01:17:00,26.6,24.0,29.36,NNW,337,0.0,0.0,84,0.00,,,0.00,Rainwise IP-100,2013-03-27 05:17:00,
2013-03-27 01:22:00,26.5,24.0,29.36,NNW,337,0.0,0.0,85,0.00,,,0.00,Rainwise IP-100,2013-03-27 05:22:00,
2013-03-27 01:27:00,26.4,23.0,29.36,NNW,337,0.0,0.0,85,0.00,,,0.00,Rainwise IP-100,2013-03-27 05:27:00,
2013-03-27 01:32:00,26.4,23.0,29.36,WSW,247,4.4,4.4,85,0.00,,,0.00,Rainwise IP-100,2013-03-27 05:32:00,
2013-03-27 01:37:00,26.7,24.0,29.36,East,90,0.0,4.7,85,0.00,,,0.00,Rainwise IP-100,2013-03-27 05:37:00,
2013-03-27 01:43:00,26.8,24.0,29.36,NNE,22,1.2,3.3,85,0.00,,,0.00,Rainwise IP-100,2013-03-27 05:43:00,
2013-03-27 01:48:00,26.6,24.0,29.36,NNE,22,0.0,1.9,85,0.00,,,0.00,Rainwise IP-100,2013-03-27 05:48:00,
2013-03-27 01:53:00,26.4,23.0,29.35,NNE,22,1.4,0.0,85,0.00,,,0.00,Rainwise IP-100,2013-03-27 05:53:00,
2013-03-27 01:58:00,26.4,23.0,29.35,WSW,247,0.0,2.3,86,0.00,,,0.00,Rainwise IP-100,2013-03-27 05:58:00,
2013-03-27 02:03:00,26.4,23.0,29.35,WSW,247,0.0,0.0,86,0.00,,,0.00,Rainwise IP-100,2013-03-27 06:03:00,
2013-03-27 02:08:00,26.2,23.0,29.35,WSW,247,0.0,0.0,86,0.00,,,0.00,Rainwise IP-100,2013-03-27 06:08:00,
2013-03-27 02:13:00,26.0,23.0,29.35,WSW,247,0.0,0.0,87,0.00,,,0.00,Rainwise IP-100,2013-03-27 06:13:00,
2013-03-27 02:18:00,25.8,23.0,29.35,WSW,247,0.0,0.0,87,0.00,,,0.00,Rainwise IP-100,2013-03-27 06:18:00,
2013-03-27 02:23:00,25.5,23.0,29.35,WSW,247,0.0,0.0,87,0.00,,,0.00,Rainwise IP-100,2013-03-27 06:23:00,
2013-03-27 02:28:00,25.3,23.0,29.35,WSW,247,0.0,0.0,87,0.00,,,0.00,Rainwise IP-100,2013-03-27 06:28:00,
2013-03-27 02:33:00,25.4,23.0,29.35,WSW,247,0.0,1.4,87,0.00,,,0.00,Rainwise IP-100,2013-03-27 06:33:00,
2013-03-27 02:38:00,25.6,23.0,29.35,WSW,247,1.4,1.4,88,0.00,,,0.00,Rainwise IP-100,2013-03-27 06:38:00,
2013-03-27 02:43:00,25.7,23.0,29.35,WSW,247,0.0,2.1,88,0.00,,,0.00,Rainwise IP-100,2013-03-27 06:43:00,
2013-03-27 02:48:00,25.6,23.0,29.35,WSW,247,0.0,0.0,88,0.00,,,0.00,Rainwise IP-100,2013-03-27 06:48:00,
2013-03-27 02:53:00,25.3,23.0,29.35,WSW,247,0.0,0.0,88,0.00,,,0.00,Rainwise IP-100,2013-03-27 06:53:00,
2013-03-27 02:59:00,25.1,23.0,29.35,WSW,247,0.0,0.0,88,0.00,,,0.00,Rainwise IP-100,2013-03-27 06:59:00,
2013-03-27 03:04:00,25.1,23.0,29.35,WSW,247,1.4,0.0,88,0.00,,,0.00,Rainwise IP-100,2013-03-27 07:04:00,
2013-03-27 03:09:00,25.0,23.0,29.35,WSW,247,1.2,1.6,89,0.00,,,0.00,Rainwise IP-100,2013-03-27 07:09:00,
2013-03-27 03:14:00,25.1,23.0,29.34,WSW,247,1.2,1.4,89,0.00,,,0.00,Rainwise IP-100,2013-03-27 07:14:00,
2013-03-27 03:19:00,25.2,23.0,29.35,WSW,247,0.0,1.2,89,0.00,,,0.00,Rainwise IP-100,2013-03-27 07:19:00,
2013-03-27 03:24:00,25.1,23.0,29.35,WSW,247,0.0,0.0,89,0.00,,,0.00,Rainwise IP-100,2013-03-27 07:24:00,
2013-03-27 03:29:00,24.9,23.0,29.34,WSW,247,0.0,1.6,89,0.00,,,0.00,Rainwise IP-100,2013-03-27 07:29:00,
2013-03-27 03:34:00,24.7,23.0,29.34,WSW,247,0.0,1.2,89,0.00,,,0.00,Rainwise IP-100,2013-03-27 07:34:00,
2013-03-27 03:39:00,24.7,24.0,29.34,WNW,292,2.8,2.8,90,0.00,,,0.00,Rainwise IP-100,2013-03-27 07:39:00,
2013-03-27 03:44:00,24.7,24.0,29.34,ESE,112,0.0,3.0,90,0.00,,,0.00,Rainwise IP-100,2013-03-27 07:44:00,
2013-03-27 03:49:00,24.6,24.0,29.34,ESE,112,0.0,0.0,90,0.00,,,0.00,Rainwise IP-100,2013-03-27 07:49:00,
2013-03-27 03:54:00,24.6,24.0,29.34,SSE,157,0.0,1.2,90,0.00,,,0.00,Rainwise IP-100,2013-03-27 07:54:00,
2013-03-27 03:59:00,24.6,24.0,29.34,SSE,157,0.0,1.2,90,0.00,,,0.00,Rainwise IP-100,2013-03-27 07:59:00,
2013-03-27 04:04:00,24.6,24.0,29.34,SSE,157,1.2,0.0,91,0.00,,,0.00,Rainwise IP-100,2013-03-27 08:04:00,
2013-03-27 04:09:00,24.6,24.0,29.34,SSE,157,1.2,1.6,91,0.00,,,0.00,Rainwise IP-100,2013-03-27 08:09:00,
2013-03-27 04:15:00,24.3,23.0,29.34,SSE,157,0.0,1.4,91,0.00,,,0.00,Rainwise IP-100,2013-03-27 08:15:00,
2013-03-27 04:20:00,24.3,23.0,29.34,NNW,337,2.8,2.8,91,0.00,,,0.00,Rainwise IP-100,2013-03-27 08:20:00,
2013-03-27 04:25:00,24.2,23.0,29.34,NNW,337,1.2,3.0,92,0.00,,,0.00,Rainwise IP-100,2013-03-27 08:25:00,
2013-03-27 04:30:00,24.0,23.0,29.34,NNW,337,0.0,1.4,92,0.00,,,0.00,Rainwise IP-100,2013-03-27 08:30:00,
2013-03-27 04:35:00,24.1,23.0,29.34,NNW,337,0.0,1.6,92,0.00,,,0.00,Rainwise IP-100,2013-03-27 08:35:00,
2013-03-27 04:40:00,24.1,23.0,29.35,NNW,337,0.0,1.4,93,0.00,,,0.00,Rainwise IP-100,2013-03-27 08:40:00,
2013-03-27 04:45:00,24.0,23.0,29.34,NNW,337,0.0,0.0,92,0.00,,,0.00,Rainwise IP-100,2013-03-27 08:45:00,
2013-03-27 04:50:00,23.8,23.0,29.34,NNW,337,0.0,0.0,92,0.00,,,0.00,Rainwise IP-100,2013-03-27 08:50:00,
2013-03-27 04:55:00,23.8,23.0,29.34,NNW,337,0.0,0.0,93,0.00,,,0.00,Rainwise IP-100,2013-03-27 08:55:00,
2013-03-27 05:00:00,23.6,23.0,29.34,NNW,337,0.0,1.2,93,0.00,,,0.00,Rainwise IP-100,2013-03-27 09:00:00,
2013-03-27 05:05:00,23.4,21.0,29.34,NNW,337,0.0,0.0,93,0.00,,,0.00,Rainwise IP-100,2013-03-27 09:05:00,
2013-03-27 05:10:00,23.4,21.0,29.34,NNW,337,0.0,0.0,93,0.00,,,0.00,Rainwise IP-100,2013-03-27 09:10:00,
2013-03-27 05:15:00,23.6,23.0,29.35,NNW,337,0.0,0.0,93,0.00,,,0.00,Rainwise IP-100,2013-03-27 09:15:00,
2013-03-27 05:20:00,23.3,21.0,29.34,NNW,337,0.0,1.4,93,0.00,,,0.00,Rainwise IP-100,2013-03-27 09:20:00,
2013-03-27 05:25:00,23.0,21.0,29.34,NNW,337,0.0,2.6,93,0.00,,,0.00,Rainwise IP-100,2013-03-27 09:25:00,
2013-03-27 05:31:00,23.1,21.0,29.35,NNW,337,0.0,1.2,93,0.00,,,0.00,Rainwise IP-100,2013-03-27 09:31:00,
2013-03-27 05:36:00,23.4,21.0,29.35,NNW,337,0.0,1.6,94,0.00,,,0.00,Rainwise IP-100,2013-03-27 09:36:00,
2013-03-27 05:41:00,23.7,23.0,29.34,NNW,337,1.4,2.1,94,0.00,,,0.00,Rainwise IP-100,2013-03-27 09:41:00,
2013-03-27 05:46:00,23.6,23.0,29.35,NNW,337,0.0,1.9,93,0.00,,,0.00,Rainwise IP-100,2013-03-27 09:46:00,
2013-03-27 05:51:00,23.3,21.0,29.35,NNW,337,0.0,1.2,93,0.00,,,0.00,Rainwise IP-100,2013-03-27 09:51:00,
2013-03-27 05:56:00,23.3,21.0,29.35,NNW,337,0.0,0.0,93,0.00,,,0.00,Rainwise IP-100,2013-03-27 09:56:00,
2013-03-27 06:01:00,23.5,23.0,29.35,NNW,337,0.0,0.0,93,0.00,,,0.00,Rainwise IP-100,2013-03-27 10:01:00,
2013-03-27 06:06:00,23.7,23.0,29.35,NNW,337,0.0,1.2,94,0.00,,,0.00,Rainwise IP-100,2013-03-27 10:06:00,
2013-03-27 06:11:00,23.7,23.0,29.35,NNW,337,0.0,0.0,94,0.00,,,0.00,Rainwise IP-100,2013-03-27 10:11:00,
2013-03-27 06:16:00,23.6,23.0,29.35,NNW,337,0.0,0.0,94,0.00,,,0.00,Rainwise IP-100,2013-03-27 10:16:00,
2013-03-27 06:21:00,23.6,23.0,29.35,NNW,337,0.0,0.0,94,0.00,,,0.00,Rainwise IP-100,2013-03-27 10:21:00,
2013-03-27 06:27:00,23.4,21.0,29.35,NNW,337,0.0,0.0,94,0.00,,,0.00,Rainwise IP-100,2013-03-27 10:27:00,
2013-03-27 06:32:00,23.5,23.0,29.35,NNW,337,0.0,0.0,94,0.00,,,0.00,Rainwise IP-100,2013-03-27 10:32:00,
2013-03-27 06:37:00,23.6,23.0,29.35,NNW,337,0.0,1.4,94,0.00,,,0.00,Rainwise IP-100,2013-03-27 10:37:00,
2013-03-27 06:42:00,23.5,23.0,29.35,NNW,337,1.2,1.2,94,0.00,,,0.00,Rainwise IP-100,2013-03-27 10:42:00,
2013-03-27 06:47:00,23.3,21.0,29.36,NNW,337,0.0,2.3,94,0.00,,,0.00,Rainwise IP-100,2013-03-27 10:47:00,
2013-03-27 06:52:00,23.2,21.0,29.36,NNW,337,0.0,1.2,94,0.00,,,0.00,Rainwise IP-100,2013-03-27 10:52:00,
2013-03-27 06:57:00,23.3,21.0,29.36,NNW,337,0.0,0.0,94,0.00,,,0.00,Rainwise IP-100,2013-03-27 10:57:00,
2013-03-27 07:02:00,23.4,21.0,29.36,NNW,337,0.0,0.0,95,0.00,,,0.00,Rainwise IP-100,2013-03-27 11:02:00,
2013-03-27 07:07:00,23.7,23.0,29.36,NNW,337,0.0,0.0,95,0.00,,,0.00,Rainwise IP-100,2013-03-27 11:07:00,
2013-03-27 07:12:00,24.2,23.0,29.36,NNW,337,0.0,1.2,95,0.00,,,0.00,Rainwise IP-100,2013-03-27 11:12:00,
2013-03-27 07:17:00,24.6,24.0,29.37,NE,45,2.3,2.8,95,0.00,,,0.00,Rainwise IP-100,2013-03-27 11:17:00,
2013-03-27 07:22:00,25.2,24.0,29.37,NE,45,0.0,3.0,95,0.00,,,0.00,Rainwise IP-100,2013-03-27 11:22:00,
2013-03-27 07:27:00,26.0,24.0,29.37,NE,45,0.0,1.4,95,0.00,,,0.00,Rainwise IP-100,2013-03-27 11:27:00,
2013-03-27 07:32:00,27.0,26.0,29.38,SSE,157,0.0,1.2,95,0.00,,,0.00,Rainwise IP-100,2013-03-27 11:32:00,
2013-03-27 07:37:00,28.1,26.0,29.38,NE,45,1.4,0.0,96,0.00,,,0.00,Rainwise IP-100,2013-03-27 11:37:00,
2013-03-27 07:43:00,29.4,29.0,29.38,NNE,22,0.0,1.9,97,0.00,,,0.00,Rainwise IP-100,2013-03-27 11:43:00,
2013-03-27 07:48:00,30.7,29.0,29.38,NNE,22,0.0,0.0,97,0.00,,,0.00,Rainwise IP-100,2013-03-27 11:48:00,
2013-03-27 07:53:00,31.3,31.0,29.38,ENE,67,1.4,2.6,98,0.00,,,0.00,Rainwise IP-100,2013-03-27 11:53:00,
2013-03-27 07:58:00,31.0,31.0,29.39,ENE,67,0.0,2.1,98,0.00,,,0.00,Rainwise IP-100,2013-03-27 11:58:00,
2013-03-27 08:03:00,31.7,32.0,29.39,ENE,67,1.2,2.3,98,0.00,,,0.00,Rainwise IP-100,2013-03-27 12:03:00,
2013-03-27 08:08:00,32.0,31.0,29.39,ENE,67,2.1,3.5,97,0.00,,,0.00,Rainwise IP-100,2013-03-27 12:08:00,
2013-03-27 08:13:00,31.7,31.0,29.39,ENE,67,1.4,3.0,96,0.00,,,0.00,Rainwise IP-100,2013-03-27 12:13:00,
2013-03-27 08:18:00,33.8,33.0,29.39,ENE,67,0.0,1.6,97,0.00,,,0.00,Rainwise IP-100,2013-03-27 12:18:00,
2013-03-27 08:23:00,36.0,35.0,29.39,SSE,157,2.1,2.6,97,0.00,,,0.00,Rainwise IP-100,2013-03-27 12:23:00,
2013-03-27 08:28:00,36.9,36.0,29.39,SSE,157,0.0,2.8,96,0.00,,,0.00,Rainwise IP-100,2013-03-27 12:28:00,
2013-03-27 08:33:00,36.6,35.0,29.39,ESE,112,0.0,2.1,93,0.00,,,0.00,Rainwise IP-100,2013-03-27 12:33:00,
2013-03-27 08:38:00,36.5,35.0,29.39,SSE,157,1.2,3.0,91,0.00,,,0.00,Rainwise IP-100,2013-03-27 12:38:00,
2013-03-27 08:43:00,37.3,35.0,29.39,SSE,157,0.0,4.2,89,0.00,,,0.00,Rainwise IP-100,2013-03-27 12:43:00,
2013-03-27 08:48:00,38.0,35.0,29.39,South,180,1.4,2.3,86,0.00,,,0.00,Rainwise IP-100,2013-03-27 12:48:00,
2013-03-27 08:53:00,38.5,35.0,29.39,ESE,112,1.4,2.3,83,0.00,,,0.00,Rainwise IP-100,2013-03-27 12:53:00,
2013-03-27 08:59:00,37.4,31.0,29.39,ENE,67,1.6,2.6,78,0.00,,,0.00,Rainwise IP-100,2013-03-27 12:59:00,
2013-03-27 09:04:00,35.9,29.0,29.39,ENE,67,0.0,2.3,74,0.00,,,0.00,Rainwise IP-100,2013-03-27 13:04:00,
2013-03-27 09:09:00,36.1,28.0,29.39,ENE,67,0.0,2.1,70,0.00,,,0.00,Rainwise IP-100,2013-03-27 13:09:00,
2013-03-27 09:14:00,37.0,28.0,29.39,SSW,202,1.2,2.8,67,0.00,,,0.00,Rainwise IP-100,2013-03-27 13:14:00,
2013-03-27 09:19:00,37.5,28.0,29.39,North,360,0.0,2.3,65,0.00,,,0.00,Rainwise IP-100,2013-03-27 13:19:00,
2013-03-27 09:24:00,37.9,28.0,29.39,SSE,157,1.4,1.4,65,0.00,,,0.00,Rainwise IP-100,2013-03-27 13:24:00,
2013-03-27 09:29:00,38.9,29.0,29.39,SSW,202,1.9,2.6,65,0.00,,,0.00,Rainwise IP-100,2013-03-27 13:29:00,
2013-03-27 09:34:00,39.8,29.0,29.39,SSE,157,1.2,3.5,65,0.00,,,0.00,Rainwise IP-100,2013-03-27 13:34:00,
2013-03-27 09:39:00,40.7,31.0,29.39,SSW,202,1.2,3.7,66,0.00,,,0.00,Rainwise IP-100,2013-03-27 13:39:00,
2013-03-27 09:44:00,41.5,32.0,29.39,ESE,112,2.1,2.8,66,0.00,,,0.00,Rainwise IP-100,2013-03-27 13:44:00,
2013-03-27 09:49:00,40.9,31.0,29.39,East,90,0.0,4.7,64,0.00,,,0.00,Rainwise IP-100,2013-03-27 13:49:00,
2013-03-27 09:54:00,41.5,31.0,29.39,SW,225,1.2,3.0,62,0.00,,,0.00,Rainwise IP-100,2013-03-27 13:54:00,
2013-03-27 09:59:00,43.6,32.0,29.38,WNW,292,7.9,7.9,61,0.00,,,0.00,Rainwise IP-100,2013-03-27 13:59:00,
2013-03-27 10:04:00,44.0,31.0,29.39,NNE,22,7.9,15.2,57,0.00,,,0.00,Rainwise IP-100,2013-03-27 14:04:00,
2013-03-27 10:10:00,43.8,28.0,29.39,NNE,22,10.7,15.6,52,0.00,,,0.00,Rainwise IP-100,2013-03-27 14:10:00,
2013-03-27 10:15:00,43.7,28.0,29.38,NNW,337,8.2,14.9,50,0.00,,,0.00,Rainwise IP-100,2013-03-27 14:15:00,
2013-03-27 10:20:00,43.9,26.0,29.38,NNW,337,10.5,11.2,49,0.00,,,0.00,Rainwise IP-100,2013-03-27 14:20:00,
2013-03-27 10:25:00,44.3,26.0,29.39,NNE,22,1.2,13.1,48,0.00,,,0.00,Rainwise IP-100,2013-03-27 14:25:00,
2013-03-27 10:30:00,44.4,26.0,29.38,NNE,22,5.6,11.2,48,0.00,,,0.00,Rainwise IP-100,2013-03-27 14:30:00,
2013-03-27 10:35:00,44.7,26.0,29.37,NNW,337,10.5,14.0,48,0.00,,,0.00,Rainwise IP-100,2013-03-27 14:35:00,
2013-03-27 10:40:00,45.0,26.0,29.38,NNE,22,9.1,17.0,47,0.00,,,0.00,Rainwise IP-100,2013-03-27 14:40:00,
2013-03-27 10:45:00,45.1,26.0,29.38,NW,315,2.1,11.9,47,0.00,,,0.00,Rainwise IP-100,2013-03-27 14:45:00,
2013-03-27 10:50:00,45.1,26.0,29.38,NNW,337,6.3,13.8,46,0.00,,,0.00,Rainwise IP-100,2013-03-27 14:50:00,
2013-03-27 10:55:00,45.2,26.0,29.38,NNE,22,6.8,10.3,46,0.00,,,0.00,Rainwise IP-100,2013-03-27 14:55:00,
2013-03-27 11:00:00,45.3,26.0,29.38,NNW,337,9.3,11.4,46,0.00,,,0.00,Rainwise IP-100,2013-03-27 15:00:00,
2013-03-27 11:05:00,45.5,26.0,29.38,ENE,67,3.0,11.0,46,0.00,,,0.00,Rainwise IP-100,2013-03-27 15:05:00,
2013-03-27 11:10:00,45.8,26.0,29.38,NNE,22,7.9,11.9,45,0.00,,,0.00,Rainwise IP-100,2013-03-27 15:10:00,
2013-03-27 11:15:00,45.5,26.0,29.38,North,360,9.3,15.4,45,0.00,,,0.00,Rainwise IP-100,2013-03-27 15:15:00,
2013-03-27 11:20:00,45.5,26.0,29.38,NE,45,4.7,13.5,45,0.00,,,0.00,Rainwise IP-100,2013-03-27 15:20:00,
2013-03-27 11:26:00,45.5,26.0,29.37,WNW,292,1.9,11.7,45,0.00,,,0.00,Rainwise IP-100,2013-03-27 15:26:00,
2013-03-27 11:31:00,45.4,26.0,29.37,NNW,337,11.9,14.2,45,0.00,,,0.00,Rainwise IP-100,2013-03-27 15:31:00,
2013-03-27 11:36:00,45.6,26.0,29.37,NNW,337,6.8,20.8,44,0.00,,,0.00,Rainwise IP-100,2013-03-27 15:36:00,
2013-03-27 11:41:00,45.9,26.0,29.37,ENE,67,8.6,11.0,44,0.00,,,0.00,Rainwise IP-100,2013-03-27 15:41:00,
2013-03-27 11:46:00,46.0,26.0,29.36,NNE,22,8.2,13.5,44,0.00,,,0.00,Rainwise IP-100,2013-03-27 15:46:00,
2013-03-27 11:51:00,45.9,24.0,29.37,NNE,22,6.5,22.2,43,0.00,,,0.00,Rainwise IP-100,2013-03-27 15:51:00,
2013-03-27 11:56:00,45.8,24.0,29.36,NNE,22,10.3,17.7,43,0.00,,,0.00,Rainwise IP-100,2013-03-27 15:56:00,
2013-03-27 12:01:00,46.3,24.0,29.37,NNE,22,16.1,28.2,42,0.00,,,0.00,Rainwise IP-100,2013-03-27 16:01:00,
2013-03-27 12:06:00,46.5,24.0,29.36,North,360,16.6,20.3,42,0.00,,,0.00,Rainwise IP-100,2013-03-27 16:06:00,
2013-03-27 12:12:00,46.2,24.0,29.36,NNE,22,6.1,17.3,42,0.00,,,0.00,Rainwise IP-100,2013-03-27 16:12:00,
2013-03-27 12:17:00,46.1,24.0,29.36,NNW,337,12.1,21.7,42,0.00,,,0.00,Rainwise IP-100,2013-03-27 16:17:00,
2013-03-27 12:22:00,46.1,24.0,29.37,NNE,22,9.8,16.3,42,0.00,,,0.00,Rainwise IP-100,2013-03-27 16:22:00,
2013-03-27 12:27:00,46.1,24.0,29.36,NNW,337,11.7,15.9,42,0.00,,,0.00,Rainwise IP-100,2013-03-27 16:27:00,
2013-03-27 12:32:00,46.2,24.0,29.37,NNW,337,13.1,18.2,42,0.00,,,0.00,Rainwise IP-100,2013-03-27 16:32:00,
2013-03-27 12:37:00,46.2,24.0,29.37,NNE,22,12.6,20.1,43,0.00,,,0.00,Rainwise IP-100,2013-03-27 16:37:00,
2013-03-27 12:42:00,46.3,24.0,29.36,North,360,16.6,18.9,42,0.00,,,0.00,Rainwise IP-100,2013-03-27 16:42:00,
2013-03-27 12:47:00,46.5,24.0,29.37,NNW,337,8.2,19.4,41,0.00,,,0.00,Rainwise IP-100,2013-03-27 16:47:00,
2013-03-27 12:52:00,46.7,24.0,29.36,NNE,22,11.2,18.9,41,0.00,,,0.00,Rainwise IP-100,2013-03-27 16:52:00,
2013-03-27 12:57:00,46.9,24.0,29.37,NNW,337,5.8,21.7,41,0.00,,,0.00,Rainwise IP-100,2013-03-27 16:57:00,
2013-03-27 13:02:00,46.7,24.0,29.36,NNW,337,6.8,17.0,41,0.00,,,0.00,Rainwise IP-100,2013-03-27 17:02:00,
2013-03-27 13:07:00,46.5,24.0,29.37,ESE,112,2.6,11.2,41,0.00,,,0.00,Rainwise IP-100,2013-03-27 17:07:00,
2013-03-27 13:12:00,46.5,24.0,29.36,ENE,67,7.2,18.4,41,0.00,,,0.00,Rainwise IP-100,2013-03-27 17:12:00,
2013-03-27 13:18:00,46.9,24.0,29.36,North,360,14.2,16.8,41,0.00,,,0.00,Rainwise IP-100,2013-03-27 17:18:00,
2013-03-27 13:23:00,47.6,24.0,29.36,NNE,22,8.4,23.8,40,0.00,,,0.00,Rainwise IP-100,2013-03-27 17:23:00,
2013-03-27 13:28:00,47.7,24.0,29.36,NNW,337,11.4,16.1,40,0.00,,,0.00,Rainwise IP-100,2013-03-27 17:28:00,
2013-03-27 13:33:00,47.1,24.0,29.36,North,360,7.7,20.8,40,0.00,,,0.00,Rainwise IP-100,2013-03-27 17:33:00,
2013-03-27 13:38:00,47.0,24.0,29.36,NNE,22,6.3,19.4,40,0.00,,,0.00,Rainwise IP-100,2013-03-27 17:38:00,
2013-03-27 13:43:00,47.1,24.0,29.36,NNW,337,2.6,17.5,41,0.00,,,0.00,Rainwise IP-100,2013-03-27 17:43:00,
2013-03-27 13:48:00,47.4,24.0,29.36,NE,45,10.7,17.5,40,0.00,,,0.00,Rainwise IP-100,2013-03-27 17:48:00,
2013-03-27 13:53:00,47.4,24.0,29.37,NNE,22,4.4,18.4,40,0.00,,,0.00,Rainwise IP-100,2013-03-27 17:53:00,
2013-03-27 13:58:00,47.2,24.0,29.36,NNE,22,14.0,21.9,40,0.00,,,0.00,Rainwise IP-100,2013-03-27 17:58:00,
2013-03-27 14:03:00,47.0,24.0,29.36,NNE,22,7.2,21.0,40,0.00,,,0.00,Rainwise IP-100,2013-03-27 18:03:00,
2013-03-27 14:08:00,46.7,24.0,29.36,North,360,11.4,11.4,40,0.00,,,0.00,Rainwise IP-100,2013-03-27 18:08:00,
2013-03-27 14:13:00,46.5,24.0,29.36,NNE,22,10.7,17.0,41,0.00,,,0.00,Rainwise IP-100,2013-03-27 18:13:00,
2013-03-27 14:18:00,46.7,24.0,29.37,NNW,337,4.2,18.2,41,0.00,,,0.00,Rainwise IP-100,2013-03-27 18:18:00,
2013-03-27 14:23:00,47.1,24.0,29.37,NNW,337,9.6,19.6,41,0.00,,,0.00,Rainwise IP-100,2013-03-27 18:23:00,
2013-03-27 14:28:00,47.4,24.0,29.37,NNE,22,3.7,13.5,40,0.00,,,0.00,Rainwise IP-100,2013-03-27 18:28:00,
2013-03-27 14:34:00,47.2,24.0,29.37,North,360,18.2,23.1,40,0.00,,,0.00,Rainwise IP-100,2013-03-27 18:34:00,
2013-03-27 14:39:00,46.7,24.0,29.36,NNW,337,7.7,21.2,40,0.00,,,0.00,Rainwise IP-100,2013-03-27 18:39:00,
2013-03-27 14:44:00,46.5,24.0,29.36,NNW,337,14.0,18.0,41,0.00,,,0.00,Rainwise IP-100,2013-03-27 18:44:00,
2013-03-27 14:49:00,46.8,24.0,29.36,North,360,14.2,18.2,41,0.00,,,0.00,Rainwise IP-100,2013-03-27 18:49:00,
2013-03-27 14:54:00,47.1,24.0,29.36,NNW,337,14.0,18.7,40,0.00,,,0.00,Rainwise IP-100,2013-03-27 18:54:00,
2013-03-27 14:59:00,47.3,24.0,29.37,NNW,337,7.2,19.6,40,0.00,,,0.00,Rainwise IP-100,2013-03-27 18:59:00,
2013-03-27 15:04:00,47.2,24.0,29.37,North,360,2.1,13.8,40,0.00,,,0.00,Rainwise IP-100,2013-03-27 19:04:00,
2013-03-27 15:09:00,47.5,24.0,29.36,ENE,67,2.1,15.4,40,0.00,,,0.00,Rainwise IP-100,2013-03-27 19:09:00,
2013-03-27 15:14:00,47.7,24.0,29.36,NNW,337,9.3,14.0,40,0.00,,,0.00,Rainwise IP-100,2013-03-27 19:14:00,
2013-03-27 15:19:00,47.7,24.0,29.36,NNW,337,12.6,19.4,39,0.00,,,0.00,Rainwise IP-100,2013-03-27 19:19:00,
2013-03-27 15:24:00,47.6,24.0,29.36,NNE,22,11.7,16.3,39,0.00,,,0.00,Rainwise IP-100,2013-03-27 19:24:00,
2013-03-27 15:29:00,47.3,24.0,29.37,North,360,13.3,15.4,40,0.00,,,0.00,Rainwise IP-100,2013-03-27 19:29:00,
2013-03-27 15:34:00,47.2,24.0,29.36,NNE,22,6.1,16.1,40,0.00,,,0.00,Rainwise IP-100,2013-03-27 19:34:00,
2013-03-27 15:39:00,47.2,24.0,29.37,NNE,22,4.9,11.2,40,0.00,,,0.00,Rainwise IP-100,2013-03-27 19:39:00,
2013-03-27 15:45:00,47.2,24.0,29.37,North,360,10.3,16.1,41,0.00,,,0.00,Rainwise IP-100,2013-03-27 19:45:00,
2013-03-27 15:50:00,47.2,24.0,29.37,NNW,337,2.8,17.3,40,0.00,,,0.00,Rainwise IP-100,2013-03-27 19:50:00,
2013-03-27 15:55:00,47.1,24.0,29.37,NNW,337,13.1,13.5,40,0.00,,,0.00,Rainwise IP-100,2013-03-27 19:55:00,
2013-03-27 16:00:00,46.7,24.0,29.37,North,360,11.4,16.6,41,0.00,,,0.00,Rainwise IP-100,2013-03-27 20:00:00,
2013-03-27 16:05:00,46.3,24.0,29.37,NNE,22,7.9,14.9,41,0.00,,,0.00,Rainwise IP-100,2013-03-27 20:05:00,
2013-03-27 16:10:00,46.2,24.0,29.37,NNE,22,6.5,15.2,42,0.00,,,0.00,Rainwise IP-100,2013-03-27 20:10:00,
2013-03-27 16:15:00,46.3,24.0,29.37,NNW,337,8.2,11.7,42,0.00,,,0.00,Rainwise IP-100,2013-03-27 20:15:00,
2013-03-27 16:20:00,46.5,24.0,29.37,NNE,22,5.1,10.3,42,0.00,,,0.00,Rainwise IP-100,2013-03-27 20:20:00,
2013-03-27 16:25:00,46.6,24.0,29.38,NNE,22,9.6,14.5,42,0.00,,,0.00,Rainwise IP-100,2013-03-27 20:25:00,
2013-03-27 16:30:00,46.7,24.0,29.37,NNE,22,3.7,12.4,42,0.00,,,0.00,Rainwise IP-100,2013-03-27 20:30:00,
2013-03-27 16:35:00,46.9,24.0,29.38,East,90,3.3,12.6,42,0.00,,,0.00,Rainwise IP-100,2013-03-27 20:35:00,
2013-03-27 16:40:00,46.8,24.0,29.38,NNE,22,14.9,14.9,42,0.00,,,0.00,Rainwise IP-100,2013-03-27 20:40:00,
2013-03-27 16:45:00,46.5,24.0,29.38,NNW,337,10.0,19.8,42,0.00,,,0.00,Rainwise IP-100,2013-03-27 20:45:00,
2013-03-27 16:50:00,46.1,24.0,29.38,NNE,22,11.4,18.2,42,0.00,,,0.00,Rainwise IP-100,2013-03-27 20:50:00,
2013-03-27 16:56:00,45.9,24.0,29.38,NNE,22,10.5,16.3,43,0.00,,,0.00,Rainwise IP-100,2013-03-27 20:56:00,
2013-03-27 17:01:00,45.8,24.0,29.38,NE,45,4.0,17.3,43,0.00,,,0.00,Rainwise IP-100,2013-03-27 21:01:00,
2013-03-27 17:06:00,45.8,24.0,29.37,NNE,22,8.9,13.8,43,0.00,,,0.00,Rainwise IP-100,2013-03-27 21:06:00,
2013-03-27 17:11:00,45.7,24.0,29.38,NNE,22,7.7,23.1,43,0.00,,,0.00,Rainwise IP-100,2013-03-27 21:11:00,
2013-03-27 17:16:00,45.6,26.0,29.39,ENE,67,9.1,15.4,44,0.00,,,0.00,Rainwise IP-100,2013-03-27 21:16:00,
2013-03-27 17:21:00,45.5,26.0,29.39,NE,45,5.4,21.0,44,0.00,,,0.00,Rainwise IP-100,2013-03-27 21:21:00,
2013-03-27 17:26:00,45.5,26.0,29.39,NNE,22,9.8,18.0,45,0.00,,,0.00,Rainwise IP-100,2013-03-27 21:26:00,
2013-03-27 17:31:00,45.5,26.0,29.39,NNE,22,12.8,17.7,45,0.00,,,0.00,Rainwise IP-100,2013-03-27 21:31:00,
2013-03-27 17:36:00,45.4,26.0,29.40,NNW,337,9.3,19.4,45,0.00,,,0.00,Rainwise IP-100,2013-03-27 21:36:00,
2013-03-27 17:41:00,45.2,26.0,29.40,NNW,337,7.9,19.6,46,0.00,,,0.00,Rainwise IP-100,2013-03-27 21:41:00,
2013-03-27 17:46:00,45.1,26.0,29.40,ENE,67,4.9,16.3,46,0.00,,,0.00,Rainwise IP-100,2013-03-27 21:46:00,
2013-03-27 17:52:00,45.0,26.0,29.40,NNE,22,7.7,18.0,46,0.00,,,0.00,Rainwise IP-100,2013-03-27 21:52:00,
2013-03-27 17:57:00,45.0,26.0,29.40,North,360,6.8,15.4,46,0.00,,,0.00,Rainwise IP-100,2013-03-27 21:57:00,
2013-03-27 18:02:00,44.9,26.0,29.41,NNE,22,7.5,12.4,47,0.00,,,0.00,Rainwise IP-100,2013-03-27 22:02:00,
2013-03-27 18:07:00,44.7,26.0,29.41,NNE,22,9.6,15.9,47,0.00,,,0.00,Rainwise IP-100,2013-03-27 22:07:00,
2013-03-27 18:12:00,44.4,26.0,29.41,NNE,22,5.6,12.6,49,0.00,,,0.00,Rainwise IP-100,2013-03-27 22:12:00,
2013-03-27 18:17:00,44.0,28.0,29.41,NNW,337,10.7,16.6,50,0.00,,,0.00,Rainwise IP-100,2013-03-27 22:17:00,
2013-03-27 18:22:00,43.8,28.0,29.41,NNE,22,10.7,20.1,51,0.00,,,0.00,Rainwise IP-100,2013-03-27 22:22:00,
2013-03-27 18:27:00,43.6,28.0,29.42,NNW,337,10.0,17.5,52,0.00,,,0.00,Rainwise IP-100,2013-03-27 22:27:00,
2013-03-27 18:32:00,43.3,28.0,29.42,North,360,8.4,18.4,53,0.00,,,0.00,Rainwise IP-100,2013-03-27 22:32:00,
2013-03-27 18:37:00,43.1,28.0,29.41,NNE,22,9.1,13.8,54,0.00,,,0.00,Rainwise IP-100,2013-03-27 22:37:00,
2013-03-27 18:42:00,42.9,28.0,29.42,NNW,337,7.2,11.9,55,0.00,,,0.00,Rainwise IP-100,2013-03-27 22:42:00,
2013-03-27 18:47:00,42.8,29.0,29.42,North,360,7.5,10.0,56,0.00,,,0.00,Rainwise IP-100,2013-03-27 22:47:00,
2013-03-27 18:52:00,42.8,29.0,29.42,NNE,22,3.5,9.8,56,0.00,,,0.00,Rainwise IP-100,2013-03-27 22:52:00,
2013-03-27 18:57:00,42.6,29.0,29.43,NNE,22,3.7,7.9,56,0.00,,,0.00,Rainwise IP-100,2013-03-27 22:57:00,
2013-03-27 19:02:00,42.4,28.0,29.43,NNW,337,4.2,7.9,56,0.00,,,0.00,Rainwise IP-100,2013-03-27 23:02:00,
2013-03-27 19:08:00,42.2,28.0,29.43,NNE,22,4.4,13.5,57,0.00,,,0.00,Rainwise IP-100,2013-03-27 23:08:00,
2013-03-27 19:13:00,42.0,29.0,29.43,ENE,67,5.8,12.6,58,0.00,,,0.00,Rainwise IP-100,2013-03-27 23:13:00,
2013-03-27 19:18:00,41.8,29.0,29.43,NNE,22,11.0,14.2,59,0.00,,,0.00,Rainwise IP-100,2013-03-27 23:18:00,
2013-03-27 19:23:00,41.6,29.0,29.43,NNE,22,4.4,12.8,60,0.00,,,0.00,Rainwise IP-100,2013-03-27 23:23:00,
2013-03-27 19:28:00,41.4,29.0,29.44,NNE,22,9.6,14.2,61,0.00,,,0.00,Rainwise IP-100,2013-03-27 23:28:00,
2013-03-27 19:33:00,41.1,29.0,29.44,NNE,22,3.0,11.0,62,0.00,,,0.00,Rainwise IP-100,2013-03-27 23:33:00,
2013-03-27 19:38:00,41.0,29.0,29.44,North,360,7.5,14.0,63,0.00,,,0.00,Rainwise IP-100,2013-03-27 23:38:00,
2013-03-27 19:43:00,40.9,31.0,29.44,North,360,6.3,9.6,64,0.00,,,0.00,Rainwise IP-100,2013-03-27 23:43:00,
2013-03-27 19:48:00,40.8,31.0,29.44,ENE,67,4.7,14.7,65,0.00,,,0.00,Rainwise IP-100,2013-03-27 23:48:00,
2013-03-27 19:53:00,40.6,31.0,29.46,North,360,6.8,10.7,66,0.00,,,0.00,Rainwise IP-100,2013-03-27 23:53:00,
2013-03-27 19:58:00,40.4,31.0,29.46,NNE,22,4.0,10.3,67,0.00,,,0.00,Rainwise IP-100,2013-03-27 23:58:00,
2013-03-27 20:03:00,40.1,31.0,29.46,NNE,22,5.1,8.9,68,0.00,,,0.00,Rainwise IP-100,2013-03-28 00:03:00,
2013-03-27 20:08:00,39.9,31.0,29.46,NNE,22,9.3,12.8,69,0.00,,,0.00,Rainwise IP-100,2013-03-28 00:08:00,
2013-03-27 20:13:00,39.9,32.0,29.46,NNW,337,4.7,12.8,70,0.00,,,0.00,Rainwise IP-100,2013-03-28 00:13:00,
2013-03-27 20:18:00,39.8,32.0,29.46,NE,45,3.3,8.6,70,0.00,,,0.00,Rainwise IP-100,2013-03-28 00:18:00,
2013-03-27 20:24:00,39.7,32.0,29.47,NNW,337,9.1,10.3,71,0.00,,,0.00,Rainwise IP-100,2013-03-28 00:24:00,
2013-03-27 20:29:00,39.6,32.0,29.46,NNE,22,3.7,9.6,71,0.00,,,0.00,Rainwise IP-100,2013-03-28 00:29:00,
2013-03-27 20:34:00,39.5,32.0,29.46,NNE,22,7.0,7.9,72,0.00,,,0.00,Rainwise IP-100,2013-03-28 00:34:00,
2013-03-27 20:39:00,39.4,31.0,29.47,North,360,6.5,8.9,72,0.00,,,0.00,Rainwise IP-100,2013-03-28 00:39:00,
2013-03-27 20:44:00,39.3,31.0,29.47,NNE,22,6.1,9.8,72,0.00,,,0.00,Rainwise IP-100,2013-03-28 00:44:00,
2013-03-27 20:49:00,39.2,31.0,29.47,NNE,22,4.7,11.0,72,0.00,,,0.00,Rainwise IP-100,2013-03-28 00:49:00,
2013-03-27 20:54:00,39.2,32.0,29.47,NNW,337,6.3,9.8,73,0.00,,,0.00,Rainwise IP-100,2013-03-28 00:54:00,
2013-03-27 20:59:00,39.1,32.0,29.48,ENE,67,4.0,11.4,73,0.00,,,0.00,Rainwise IP-100,2013-03-28 00:59:00,
2013-03-27 21:04:00,39.0,32.0,29.48,NNE,22,6.1,11.2,74,0.00,,,0.00,Rainwise IP-100,2013-03-28 01:04:00,
2013-03-27 21:09:00,38.9,32.0,29.48,NNE,22,4.0,9.8,74,0.00,,,0.00,Rainwise IP-100,2013-03-28 01:09:00,
2013-03-27 21:14:00,38.6,32.0,29.48,NNW,337,6.1,7.0,75,0.00,,,0.00,Rainwise IP-100,2013-03-28 01:14:00,
2013-03-27 21:19:00,38.4,31.0,29.48,NE,45,0.0,8.4,76,0.00,,,0.00,Rainwise IP-100,2013-03-28 01:19:00,
2013-03-27 21:24:00,38.2,32.0,29.49,WNW,292,0.0,5.4,77,0.00,,,0.00,Rainwise IP-100,2013-03-28 01:24:00,
2013-03-27 21:29:00,38.1,32.0,29.48,NNE,22,2.8,5.6,78,0.00,,,0.00,Rainwise IP-100,2013-03-28 01:29:00,
2013-03-27 21:34:00,37.8,32.0,29.49,NNW,337,4.2,6.1,79,0.00,,,0.00,Rainwise IP-100,2013-03-28 01:34:00,
2013-03-27 21:40:00,37.5,33.0,29.48,NNW,337,1.9,4.4,81,0.00,,,0.00,Rainwise IP-100,2013-03-28 01:40:00,
2013-03-27 21:45:00,37.4,32.0,29.49,NNW,337,1.9,2.6,82,0.00,,,0.00,Rainwise IP-100,2013-03-28 01:45:00,
2013-03-27 21:50:00,37.3,32.0,29.49,NNW,337,0.0,2.6,82,0.00,,,0.00,Rainwise IP-100,2013-03-28 01:50:00,
2013-03-27 21:55:00,37.2,32.0,29.49,NNW,337,0.0,1.4,83,0.00,,,0.00,Rainwise IP-100,2013-03-28 01:55:00,
2013-03-27 22:00:00,37.0,32.0,29.49,NNW,337,0.0,1.2,84,0.00,,,0.00,Rainwise IP-100,2013-03-28 02:00:00,
2013-03-27 22:05:00,36.8,33.0,29.49,NNW,337,1.2,1.9,85,0.00,,,0.00,Rainwise IP-100,2013-03-28 02:05:00,
2013-03-27 22:10:00,36.6,33.0,29.49,NNW,337,0.0,1.9,85,0.00,,,0.00,Rainwise IP-100,2013-03-28 02:10:00,
2013-03-27 22:15:00,36.5,33.0,29.49,NNW,337,0.0,1.6,86,0.00,,,0.00,Rainwise IP-100,2013-03-28 02:15:00,
2013-03-27 22:20:00,36.4,32.0,29.48,NNW,337,1.9,2.1,87,0.00,,,0.00,Rainwise IP-100,2013-03-28 02:20:00,
2013-03-27 22:25:00,36.3,32.0,29.49,NNW,337,1.6,2.1,87,0.00,,,0.00,Rainwise IP-100,2013-03-28 02:25:00,
2013-03-27 22:30:00,36.1,32.0,29.49,NNW,337,0.0,2.3,88,0.00,,,0.00,Rainwise IP-100,2013-03-28 02:30:00,
2013-03-27 22:35:00,36.0,32.0,29.48,NNW,337,0.0,1.4,88,0.00,,,0.00,Rainwise IP-100,2013-03-28 02:35:00,
2013-03-27 22:40:00,35.8,33.0,29.48,NNW,337,0.0,1.2,89,0.00,,,0.00,Rainwise IP-100,2013-03-28 02:40:00,
2013-03-27 22:45:00,35.6,33.0,29.48,NNW,337,0.0,0.0,89,0.00,,,0.00,Rainwise IP-100,2013-03-28 02:45:00,
2013-03-27 22:50:00,35.5,33.0,29.48,NNW,337,0.0,0.0,89,0.00,,,0.00,Rainwise IP-100,2013-03-28 02:50:00,
2013-03-27 22:56:00,35.2,32.0,29.48,NNW,337,0.0,0.0,90,0.00,,,0.00,Rainwise IP-100,2013-03-28 02:56:00,
2013-03-27 23:01:00,35.1,32.0,29.49,NNW,337,0.0,0.0,90,0.00,,,0.00,Rainwise IP-100,2013-03-28 03:01:00,
2013-03-27 23:06:00,35.0,32.0,29.48,NNW,337,0.0,0.0,91,0.00,,,0.00,Rainwise IP-100,2013-03-28 03:06:00,
2013-03-27 23:11:00,35.0,32.0,29.48,NNW,337,0.0,0.0,91,0.00,,,0.00,Rainwise IP-100,2013-03-28 03:11:00,
2013-03-27 23:16:00,34.9,32.0,29.49,NNW,337,0.0,0.0,92,0.00,,,0.00,Rainwise IP-100,2013-03-28 03:16:00,
2013-03-27 23:21:00,34.8,32.0,29.49,NNW,337,0.0,0.0,92,0.00,,,0.00,Rainwise IP-100,2013-03-28 03:21:00,
2013-03-27 23:26:00,34.8,33.0,29.48,NNW,337,0.0,0.0,93,0.00,,,0.00,Rainwise IP-100,2013-03-28 03:26:00,
2013-03-27 23:32:00,34.7,33.0,29.48,NNW,337,0.0,0.0,93,0.00,,,0.00,Rainwise IP-100,2013-03-28 03:32:00,
2013-03-27 23:37:00,34.7,33.0,29.48,NNW,337,0.0,0.0,93,0.00,,,0.00,Rainwise IP-100,2013-03-28 03:37:00,
2013-03-27 23:42:00,34.7,33.0,29.48,NNW,337,0.0,0.0,93,0.00,,,0.00,Rainwise IP-100,2013-03-28 03:42:00,
2013-03-27 23:47:00,34.7,33.0,29.48,NNW,337,0.0,0.0,94,0.00,,,0.00,Rainwise IP-100,2013-03-28 03:47:00,
2013-03-27 23:52:00,34.7,33.0,29.48,NNW,337,0.0,0.0,94,0.00,,,0.00,Rainwise IP-100,2013-03-28 03:52:00,
2013-03-27 23:57:00,34.7,33.0,29.48,NNW,337,0.0,0.0,94,0.00,,,0.00,Rainwise IP-100,2013-03-28 03:57:00,